Overview Statistics Trail Chart Weather Telemetry Raw packets
 

This is the latest recevied weather packets stored in our database for station/object K0FJ-1. If no packets are shown the sender has not sent any weather packets the latest 10 day(s).

<< 7 8 9 10 11 12 13 >>
Time Temp. Humidity Pressure Rain* Wind** Luminosity Snow
1788623703 28.33° C 56% 1016.4 hPa 0 mm - - -
1788623403 28.33° C 58% 1016.4 hPa 0 mm - - -
1788623103 28.33° C 57% 1016.4 hPa 0 mm - - -
1788622803 27.78° C 59% 1016.3 hPa 0 mm - - -
1788622503 27.78° C 58% 1016.2 hPa 0 mm - - -
1788622203 27.78° C 58% 1016.2 hPa 0 mm - - -
1788621903 27.78° C 57% 1016.1 hPa 0 mm - - -
1788621603 27.78° C 57% 1016 hPa 0 mm - - -
1788621303 27.78° C 57% 1016 hPa 0 mm - - -
1788621003 27.78° C 57% 1016 hPa 0 mm - - -
1788620711 27.22° C 58% 1016 hPa 0 mm - - -
1788620403 26.67° C 60% 1015.9 hPa 0 mm - - -
1788620103 26.11° C 61% 1015.9 hPa 0 mm - - -
1788619803 25.56° C 64% 1015.7 hPa 0 mm - - -
1788619503 24.44° C 68% 1015.8 hPa 0 mm - - -
1788619203 23.89° C 67% 1015.9 hPa 0 mm - - -
1788618903 23.33° C 71% 1015.9 hPa 0 mm - - -
1788618603 23.33° C 72% 1015.9 hPa 0 mm - - -
1788618303 22.78° C 73% 1015.9 hPa 0 mm - - -
1788618003 22.22° C 75% 1015.8 hPa 0 mm - - -
1788617703 21.67° C 76% 1015.7 hPa 0 mm - - -
1788617403 21.11° C 77% 1015.8 hPa 0 mm - - -
1788617103 21.11° C 77% 1015.7 hPa 0 mm - - -
1788616803 20.56° C 77% 1015.7 hPa 0 mm - - -
1788616503 20.56° C 77% 1015.7 hPa 0 mm - - -

* Rain latest hour (hover to see other rain measurements)
** Current wind speed in m/s (hover to see current wind gust speed)